Location: Boda
(47.1872°N, 9.5454°E)
Time: 07:40:59
(UTC+00:00)

Cosmos 1544 Rocket - Pass Details

Date: 14 May 2021
Orbit: 605 x 629 km, 82.5° (Epoch: 17 June)

Event Time Altitude Azimuth Distance (km) Brightness Sun altitude
Rises 01:27:12 0° 350° (N) 2,896 7.8 -18.1°
Reaches altitude 10° 01:29:26 10° 350° (N) 1,990 6.8 -17.9°
Maximum altitude 01:33:50 84° 263° (W) 630 3.5 -17.4°
Enters shadow 01:36:16 26° 176° (S) 1,215 4.6 -17.2°
